Date String (YYYY-MM-DD hh:mm:ss) UTC,Instrument flags,Ambient pressure (hPa),Sample flow (lpm),Bypass flow (lpm),Sample temperature (°C),Ambient temperature (°C),ASC tube jacket temperature (°C),LED temperature (°C),Box temperature (°C),Sample RH (%),Span deviation,Mass concentration (μg/m³),Mass concentration (μg/m³),Mass concentration (μg/m³)
DateTimeUTC,F1_M11,P_M11,Q1_M11,Q2_M11,T1_M11,T2_M11,T3_M11,T4_M11,T5_M11,U1_M11,ZSPAN_M11,X0_M11,X2_M11,X1_M11
2022-08-20 01:00:00,,0827.5,5.00,0.00,29.9,27.7,00.0,38.6,31.6,26.5,0000.0,0023.87,0007.79,0006.35
2022-08-20 01:01:00,,0827.5,5.00,0.00,29.8,27.5,00.0,38.5,31.5,26.6,0000.0,0023.08,0007.84,0006.37
2022-08-20 01:02:00,,0827.5,5.01,0.00,29.7,27.6,00.0,38.5,31.4,26.7,0000.0,0022.81,0007.87,0006.38
2022-08-20 01:03:00,,0827.5,4.99,0.00,29.7,27.7,00.0,38.5,31.4,26.8,0000.0,0022.83,0007.93,0006.39
2022-08-20 01:04:00,,0827.5,5.00,0.00,29.7,27.9,00.0,38.5,31.5,26.8,0000.0,0023.00,0007.96,0006.39
2022-08-20 01:05:00,,0827.5,5.01,0.00,29.7,28.1,00.0,38.5,31.6,27.0,0000.0,0022.43,0007.96,0006.41
2022-08-20 01:06:00,,0827.5,5.00,0.00,29.7,28.3,00.0,38.5,31.6,26.9,0000.0,0022.40,0007.98,0006.40
2022-08-20 01:07:00,,0827.5,4.99,0.00,29.8,28.5,00.0,38.5,31.7,26.9,0000.0,0022.71,0007.97,0006.40
2022-08-20 01:08:00,,0827.5,5.02,0.00,29.8,28.6,00.0,38.6,31.8,26.7,0000.0,0023.60,0007.99,0006.40
2022-08-20 01:09:00,,0827.5,4.99,0.00,29.9,28.8,00.0,38.6,31.8,26.8,0000.0,0024.25,0007.99,0006.40
2022-08-20 01:10:00,,0827.6,5.00,0.00,29.9,28.9,00.0,38.6,31.9,26.6,0000.0,0023.78,0008.00,0006.41
2022-08-20 01:11:00,,0827.5,5.00,0.00,30.0,29.0,00.0,38.6,32.0,26.4,0000.0,0022.35,0008.06,0006.42
2022-08-20 01:12:00,,0827.5,5.00,0.00,30.0,28.9,00.0,38.6,31.9,26.2,0000.0,0022.54,0008.01,0006.40
2022-08-20 01:13:00,,0827.5,4.99,0.00,29.9,28.2,00.0,38.6,31.7,26.6,0000.0,0022.76,0008.03,0006.40
2022-08-20 01:14:00,,0827.5,5.00,0.00,29.9,27.6,00.0,38.6,31.6,26.1,0000.0,0022.38,0008.03,0006.39
2022-08-20 01:15:00,,0827.5,5.01,0.00,29.8,27.5,00.0,38.5,31.5,26.0,0000.0,0023.53,0007.98,0006.39
2022-08-20 01:16:00,,0827.6,4.99,0.00,29.8,27.6,00.0,38.5,31.5,26.0,0000.0,0024.36,0007.93,0006.36
2022-08-20 01:17:00,,0827.5,5.00,0.00,29.7,27.7,00.0,38.5,31.4,26.6,0000.5,0025.89,0007.96,0006.36
2022-08-20 01:18:00,,0827.6,5.00,0.00,29.7,27.9,00.0,38.5,31.5,26.7,0001.2,0025.42,0007.96,0006.36
2022-08-20 01:19:00,,0827.5,5.01,0.00,29.7,28.1,00.0,38.5,31.6,26.6,0001.0,0024.31,0007.97,0006.37
2022-08-20 01:20:00,,0827.5,4.99,0.00,29.8,28.3,00.0,38.5,31.7,26.5,0000.7,0022.99,0007.92,0006.36
2022-08-20 01:21:00,,0827.6,5.01,0.00,29.8,28.5,00.0,38.5,31.7,26.3,0000.1,0021.99,0007.87,0006.35
2022-08-20 01:22:00,,0827.6,5.00,0.00,29.8,28.6,00.0,38.6,31.8,26.3,0000.0,0021.54,0007.81,0006.34
2022-08-20 01:23:00,,0827.7,4.99,0.00,29.9,28.8,00.0,38.6,31.9,26.4,0000.0,0021.21,0007.83,0006.34
2022-08-20 01:24:00,,0827.7,5.00,0.00,29.9,28.9,00.0,38.6,31.9,26.2,0000.0,0021.11,0007.79,0006.34
2022-08-20 01:25:00,,0827.7,5.00,0.00,30.0,29.0,00.0,38.6,32.0,26.0,0000.0,0021.42,0007.73,0006.34
2022-08-20 01:26:00,,0827.7,5.00,0.00,30.0,28.8,00.0,38.6,31.9,25.8,0000.0,0021.63,0007.77,0006.35
2022-08-20 01:27:00,,0827.7,5.01,0.00,29.9,28.1,00.0,38.6,31.7,25.9,0000.0,0020.46,0007.85,0006.38
2022-08-20 01:28:00,,0827.7,4.99,0.00,29.9,27.6,00.0,38.6,31.6,26.3,0000.0,0018.82,0007.80,0006.39
2022-08-20 01:29:00,,0827.7,5.00,0.00,29.8,27.5,00.0,38.5,31.5,26.5,0000.0,0018.85,0007.77,0006.41
2022-08-20 01:30:00,,0827.7,5.01,0.00,29.7,27.6,00.0,38.5,31.4,26.7,0000.0,0019.19,0007.73,0006.41
2022-08-20 01:31:00,,0827.7,4.99,0.00,29.7,27.7,00.0,38.5,31.4,26.8,0000.0,0020.46,0007.76,0006.42
2022-08-20 01:32:00,,0827.7,5.01,0.00,29.7,27.9,00.0,38.5,31.5,26.9,0000.0,0020.34,0007.77,0006.43
2022-08-20 01:33:00,,0827.7,4.99,0.00,29.7,28.1,00.0,38.5,31.6,26.8,0000.0,0020.05,0007.77,0006.43
2022-08-20 01:34:00,,0827.7,5.01,0.00,29.7,28.3,00.0,38.5,31.7,26.8,0000.0,0019.91,0007.80,0006.44
2022-08-20 01:35:00,,0827.8,4.99,0.00,29.8,28.5,00.0,38.5,31.7,26.7,0000.0,0019.66,0007.81,0006.45
2022-08-20 01:36:00,,0827.7,5.00,0.00,29.8,28.6,00.0,38.5,31.8,26.7,0000.0,0019.00,0007.88,0006.47
2022-08-20 01:37:00,,0827.7,5.00,0.00,29.8,28.8,00.0,38.6,31.8,26.6,0000.0,0017.73,0007.90,0006.48
2022-08-20 01:38:00,,0827.7,5.00,0.00,29.9,28.9,00.0,38.6,31.9,26.6,0000.0,0017.45,0007.89,0006.49
2022-08-20 01:39:00,,0827.7,5.01,0.00,29.9,29.0,00.0,38.6,31.9,26.5,0000.0,0017.55,0007.91,0006.50
2022-08-20 01:40:00,,0827.7,5.00,0.00,30.0,29.0,00.0,38.6,32.0,26.5,0000.0,0017.60,0007.93,0006.49
2022-08-20 01:41:00,,0827.7,4.99,0.00,30.0,28.4,00.0,38.6,31.8,26.5,0000.0,0018.91,0007.96,0006.50
2022-08-20 01:42:00,,0827.7,5.00,0.00,29.9,27.7,00.0,38.6,31.6,26.7,0000.0,0017.96,0007.95,0006.50
2022-08-20 01:43:00,,0827.7,5.00,0.00,29.8,27.5,00.0,38.5,31.5,26.8,0000.0,0017.81,0007.96,0006.51
2022-08-20 01:44:00,,0827.7,4.99,0.00,29.7,27.5,00.0,38.5,31.4,27.1,0000.0,0019.31,0007.97,0006.53
2022-08-20 01:45:00,,0827.7,5.00,0.00,29.7,27.6,00.0,38.5,31.3,27.2,0000.0,0019.37,0007.92,0006.54
2022-08-20 01:46:00,,0827.8,5.00,0.00,29.7,27.8,00.0,38.5,31.4,27.3,0000.0,0019.48,0007.90,0006.54
2022-08-20 01:47:00,,0827.8,4.99,0.00,29.7,28.0,00.0,38.5,31.5,27.3,0000.0,0019.77,0007.90,0006.55
2022-08-20 01:48:00,,0827.8,5.00,0.00,29.7,28.2,00.0,38.5,31.6,27.3,0000.0,0019.57,0007.86,0006.55
2022-08-20 01:49:00,,0827.9,5.01,0.00,29.7,28.4,00.0,38.5,31.7,27.4,0000.0,0019.18,0007.83,0006.55
2022-08-20 01:50:00,,0827.9,4.99,0.00,29.8,28.5,00.0,38.5,31.7,27.3,0000.0,0018.76,0007.81,0006.54
2022-08-20 01:51:00,,0827.9,5.01,0.00,29.8,28.7,00.0,38.6,31.8,27.1,0000.0,0019.25,0007.82,0006.56
2022-08-20 01:52:00,,0827.9,5.00,0.00,29.8,28.8,00.0,38.6,31.8,27.0,0000.0,0019.01,0007.81,0006.56
2022-08-20 01:53:00,,0827.9,4.99,0.00,29.9,28.9,00.0,38.6,31.9,26.9,0000.0,0017.95,0007.82,0006.55
2022-08-20 01:54:00,,0827.9,5.00,0.00,29.9,29.0,00.0,38.6,31.9,26.6,0000.0,0017.76,0007.83,0006.53
2022-08-20 01:55:00,,0827.8,5.00,0.00,30.0,29.0,00.0,38.6,32.0,26.7,0000.0,0016.48,0007.78,0006.51
2022-08-20 01:56:00,,0827.9,5.00,0.00,30.0,28.4,00.0,38.6,31.8,26.8,0000.0,0016.08,0007.83,0006.49
2022-08-20 01:57:00,,0827.8,4.99,0.00,29.9,27.7,00.0,38.6,31.6,26.8,0000.0,0015.59,0007.82,0006.48
2022-08-20 01:58:00,,0828.0,5.00,0.00,29.8,27.6,00.0,38.6,31.5,26.9,0000.0,0015.17,0007.81,0006.47
2022-08-20 01:59:00,,0828.0,5.01,0.00,29.7,27.6,00.0,38.5,31.4,27.2,0000.0,0015.14,0007.78,0006.46
